Weather Roundup
Issued by NWS Chicago, IL

Home | Current Version | Previous Version | Graphics & Text | Print | Product List | Glossary On
Versions: 1 2 3 4 5 6 7 8 9 10 11 12 13 14 15 16 17 18 19 20 21 22 23 24 25 26 27 28 29 30 31 32 33 34 35 36 37 38 39 40 41 42 43 44 45 46 47 48 49 50
000
NZUS59 KLOT 061903
HRRLOT

CHICAGO AREA WEATHER ROUNDUP
NATIONAL WEATHER SERVICE CHICAGO/ROMEOVILLE IL
100 PM CST SAT FEB 06 2016

NOTE: "FAIR" INDICATES FEW OR NO CLOUDS BELOW 12,000 FEET WITH NO
SIGNIFICANT WEATHER AND/OR OBSTRUCTIONS TO VISIBILITY.

* THESE STATIONS ARE NOT UNDER NWS QUALITY CONTROL. THEY ALSO MAY NOT
  REPORT WEATHER SUCH AS PRECIPITATION OR FOG.

ILZ005-006-012>014-019>023-062000-
NORTHEAST ILLINOIS

CITY           SKY/WX    TMP DP  RH WIND       PRES   REMARKS
OHARE          MOSUNNY   36  27  69 W13       30.18F
MIDWAY         PTSUNNY   39  26  59 W12       30.19F
AURORA         MOSUNNY   40  29  64 SW13      30.19F
LANSING*       PTSUNNY   39  28  65 SW16      30.21F
WAUKEGAN       CLOUDY    33  27  78 SW8G17    30.16F WCI  26
DUPAGE AIRPORT MOSUNNY   39  27  62 W13       30.18F
WHEELING       PTSUNNY   37  26  64 W14       30.19F
$$

WIZ051-052-058>065-066-070>072-062000-
SOUTHEAST WISCONSIN

CITY           SKY/WX    TMP DP  RH WIND       PRES   REMARKS
MILWAUKEE      CLOUDY    33  25  72 SW12      30.15F WCI  24
KENOSHA*       CLOUDY    33  26  75 W18       30.16F WCI  22
RACINE*        CLOUDY    33  25  72 SW12      30.17F WCI  24
BURLINGTON     CLOUDY    30  26  83 W12G17    30.16F WCI  21
WAUKESHA       CLOUDY    28  25  86 SW12      30.15F FOG     WCI  18
$$

INZ001>003-010>013-019-020-062000-
NORTHWEST INDIANA

CITY           SKY/WX    TMP DP  RH WIND       PRES   REMARKS
GARY*          MOSUNNY   39  25  56 SW20      30.21F
MICHIGAN CITY* NOT AVBL
RENSSELAER*    NOT AVBL
VALPARAISO     SUNNY     39  26  59 SW16      30.21F
$$

LMZ740>746-062000-
SOUTHERN LAKE MICHIGAN

STATION/POSITION TIME  SKY/WX   TEMP WIND        PRES    VSBY
                                AIR  DIR/SP/G
                 (UTC)          (F)  (DEG/KT/KT) (MB)    (MI)
HARRISON CRIB    1800            36  250/ 12/ 17   N/A
BURNHAM HARBOR   1900            38  250/ 10/ 14   N/A
CALUMET HARBOR   1800            37  210/  9/ 16 1022.7F
BURNS HARBOR     1800            36  230/ 11/ 19 1024.0F
MICHIGAN CITY    1800            35  200/ 16/ 18   N/A
$$

ABBREVIATIONS USED IN REMARKS
   TC - TEMPERATURE IN CELSIUS
  WCI - WIND CHILL INDEX
   HX - HEAT INDEX
  VSB - VISIBILITY
$$



USA.gov is the U.S. government's official web portal to all federal, state and local government web resources and services.